Location: *
(43.9900°N, 3.4811°E)
Time: 08:08:51
(UTC+00:00)

Cosmos 990 Rocket - Pass Details

Date: 25 August 2019
Orbit: 748 x 768 km, 74.0° (Epoch: 21 September)

Event Time Altitude Azimuth Distance (km) Brightness Sun altitude
Rises 20:02:13 0° 198° (SSW) 3,213 7.1 -15.2°
Reaches altitude 10° 20:04:35 10° 199° (SSW) 2,289 6.3 -15.6°
Maximum altitude 20:09:47 89° 113° (ESE) 765 3.9 -16.3°
Drops below altitude 10° 20:15:00 10° 21° (NNE) 2,291 6.6 -17.1°
Sets 20:17:22 0° 21° (NNE) 3,218 7.4 -17.5°
